TimeCST,TemperatureF,Dew PointF,Humidity,Sea Level PressureIn,VisibilityMPH,Wind Direction,Wind SpeedMPH,Gust SpeedMPH,PrecipitationIn,Events,Conditions,WindDirDegrees,DateUTC
12:53 AM,36.0,23.0,59,29.91,10.0,South,4.6,-,N/A,,Clear,190,2012-11-25 06:53:00
1:53 AM,30.0,21.0,69,29.91,10.0,Calm,Calm,-,N/A,,Clear,0,2012-11-25 07:53:00
2:53 AM,32.0,24.1,73,29.90,10.0,South,5.8,-,N/A,,Clear,180,2012-11-25 08:53:00
3:53 AM,30.9,23.0,72,29.91,10.0,Calm,Calm,-,N/A,,Clear,0,2012-11-25 09:53:00
4:53 AM,25.0,19.9,81,29.92,10.0,Calm,Calm,-,N/A,,Clear,0,2012-11-25 10:53:00
5:53 AM,27.0,24.1,89,29.93,10.0,Calm,Calm,-,N/A,,Clear,0,2012-11-25 11:53:00
6:53 AM,28.9,24.1,82,29.94,10.0,Calm,Calm,-,N/A,,Clear,0,2012-11-25 12:53:00
7:53 AM,28.9,23.0,78,29.97,10.0,Calm,Calm,-,N/A,,Clear,0,2012-11-25 13:53:00
8:53 AM,35.1,28.0,76,29.99,10.0,Calm,Calm,-,N/A,,Clear,0,2012-11-25 14:53:00
9:53 AM,44.1,28.0,53,30.00,10.0,North,5.8,-,N/A,,Clear,350,2012-11-25 15:53:00
10:53 AM,48.9,28.0,44,30.00,10.0,NNE,9.2,-,N/A,,Clear,30,2012-11-25 16:53:00
11:53 AM,52.0,30.0,43,29.96,10.0,North,9.2,-,N/A,,Clear,360,2012-11-25 17:53:00
12:53 PM,55.0,30.0,38,29.95,10.0,NNE,9.2,-,N/A,,Clear,30,2012-11-25 18:53:00
1:53 PM,53.1,28.0,38,29.95,10.0,NNE,10.4,-,N/A,,Clear,20,2012-11-25 19:53:00
2:53 PM,52.0,28.0,40,29.96,10.0,NNE,10.4,-,N/A,,Clear,30,2012-11-25 20:53:00
3:53 PM,50.0,28.9,44,29.98,10.0,North,11.5,-,N/A,,Clear,10,2012-11-25 21:53:00
4:53 PM,43.0,27.0,53,30.00,10.0,NNE,9.2,-,N/A,,Clear,30,2012-11-25 22:53:00
5:53 PM,37.0,26.1,65,30.02,10.0,NNE,9.2,-,N/A,,Clear,30,2012-11-25 23:53:00
6:53 PM,34.0,25.0,70,30.04,10.0,NNE,8.1,-,N/A,,Clear,20,2012-11-26 00:53:00
7:53 PM,36.0,27.0,70,30.06,10.0,NNE,9.2,-,N/A,,Clear,30,2012-11-26 01:53:00
8:53 PM,34.0,26.1,73,30.08,10.0,NNE,10.4,-,N/A,,Clear,20,2012-11-26 02:53:00
9:53 PM,32.0,25.0,75,30.09,10.0,NNE,10.4,-,N/A,,Clear,30,2012-11-26 03:53:00
10:53 PM,33.1,25.0,72,30.10,10.0,NE,8.1,-,N/A,,Clear,50,2012-11-26 04:53:00
11:53 PM,30.9,25.0,79,30.11,10.0,North,11.5,-,N/A,,Clear,10,2012-11-26 05:53:00